Regional Weather Roundup
Issued by NWS Kansas City/Pleasant Hill, MO

Home | Current Version | Previous Version | Graphics & Text | Print | Product List | Glossary Off
Versions: 1 2 3 4 5 6 7 8 9 10 11 12 13 14 15 16 17 18 19 20 21 22 23 24 25 26 27 28 29 30 31 32 33 34 35 36 37 38 39 40 41 42 43 44 45 46 47 48 49 50

000
ASUS43 KEAX 011710
RWREAX

WEATHER ROUNDUP FOR EASTERN KANSAS AND NORTHWEST MISSOURI
NATIONAL WEATHER SERVICE KANSAS CITY/PLEASANT HILL MO
1200 PM CDT TUE SEP 01 2015

KSZ040-057-103>105-MOZ028-029-037-043-011800-
...KANSAS CITY METROPOLITAN AREA...

CITY           SKY/WX    TMP DP  RH WIND       PRES   REMARKS
K.C. INTL      MOSUNNY   86  69  56 SW14      30.03F HX  90
K.C. DOWNTOWN  SUNNY     87  68  52 S8G18     30.02F HX  90
LEES SUMMIT    SUNNY     84  67  56 SW13      30.05F
OLATHE - IXD   SUNNY     84  70  62 S12       30.05S
OLATHE - OJC   SUNNY     82  69  64 SW8G18    30.04F
LAWRENCE       SUNNY     86  70  58 S8        30.02F HX  90

$$

MOZ001>008-011>017-020>025-030>033-038>040-044>046-053-054-011800-
...NORTHERN AND CENTRAL MISSOURI...

CITY           SKY/WX    TMP DP  RH WIND       PRES   REMARKS
ST. JOSEPH     SUNNY     85  70  60 S13       30.00F
MOSBY          SUNNY     84  66  54 S8        30.03F
WARRENSBURG    SUNNY     86  66  51 S9        30.05F
WHITEMAN AFB   SUNNY     88  68  51 SW14      30.05S HX  91
CLINTON        SUNNY     88  70  55 SW8       30.07S HX  92
SEDALIA        SUNNY     89  68  49 SW10      30.08S HX  93
WARSAW         NOT AVBL
CHILLICOTHE      N/A     87  70  56 S9        30.04S HX  92
KIRKSVILLE     SUNNY     86  70  58 S9        30.06S HX  90

$$

MOZ041-047>049-056>058-063>065-088>090-097-011800-
...EASTERN AND SOUTHERN MISSOURI...

CITY           SKY/WX    TMP DP  RH WIND       PRES   REMARKS
ST. LOUIS INTL SUNNY     90  70  51 SW6       30.10S HX  95
SPIRIT OF STL  SUNNY     87  71  58 VRB3      30.07F HX  93
COLUMBIA       SUNNY     85  70  60 S7        30.08F
JEFFERSON CITY SUNNY     86  67  52 VRB5      30.07S
ROLLA          SUNNY     87  68  52 SW8       30.10F HAZE    HX  90
OSAGE BEACH    SUNNY     88  66  48 SW9       30.10S HX  90
SPRINGFIELD    SUNNY     85  67  54 S10       30.11S
BRANSON        MOSUNNY   84  68  58 S12       30.14R
JOPLIN         SUNNY     85  67  54 S13       30.08S
WEST PLAINS    SUNNY     84  68  58 VRB7      30.15S

$$

IAZ060-094-KSZ022-034>040-054-083-096-NEZ052-066-093-011800-
...KANSAS...SOUTHEAST NEBRASKA AND IOWA...

CITY           SKY/WX    TMP DP  RH WIND       PRES   REMARKS
TOPEKA         SUNNY     86  67  52 S13       30.01F
MANHATTAN      SUNNY     89  67  47 S12       29.98S HX  92
EMPORIA        SUNNY     86  65  49 S16       30.02F
CHANUTE        SUNNY     84  68  58 S16       30.06S
WICHITA        MOSUNNY   88  66  48 S16       30.00F HX  90
OMAHA          PTSUNNY   82  68  62 S10       29.95S
LINCOLN        MOSUNNY   85  68  56 SW18G24   29.95F
FALLS CITY     MOSUNNY   85  69  58 S9        29.98S
LAMONI         SUNNY     85  71  63 S14       30.01F HX  90
DES MOINES     MOSUNNY   86  69  56 SW13      29.97S HX  90

$$




USA.gov is the U.S. government's official web portal to all federal, state and local government web resources and services.